{"data":{"norad_id":62572,"epoch":"2026-09-21T16:41:06.202752Z","epoch_age_seconds":67992,"freshness":"FRESH","line1":"1 62572U 25006U   26264.69521068  .00010860  00000+0  40356-3 0  9997","line2":"2 62572  42.9948 265.2440 0000899 297.9568  62.1192 15.27580652 94842","mean_motion":15.27580652,"eccentricity":8.99e-5,"inclination_deg":42.9948,"raan_deg":265.244,"arg_perigee_deg":297.9568,"mean_anomaly_deg":62.1192,"bstar":0.00040356,"rev_number":9484,"period_min":94.26670847884,"perigee_km":482.43032326327,"apogee_km":483.66396417231,"semimajor_km":6861.1841437178,"source":"CELESTRAK","updated_at":"2026-09-22T09:00:49.629823Z"}}